Flag for Greece Weather past 2 weeks in Nea Smyrni, Greece

Now
86 °F

Passing clouds.


Feels Like: 87 °F
Forecast: 77 / 91 °F
Wind: 26 mph from Northeast

Location: Eleftherios Venizelos International Airport

Current Time: Aug 3, 2015 at 12:17:23 PM

Latest Report: Aug 3, 2015 at 11:50 AM


Visibility: N/A

Pressure: 29.95 "Hg

Humidity: 49%

Dew point: 64 °F

Location of Nea SmyrniLocation

Historic Weather in Nea Smyrni — Graph

°F

Nea Smyrni temperature yesterday

Maximum temperature yesterday: 90 °F (at 2:50 PM)
Minimum temperature yesterday: 79 °F (at 6:50 AM)
Average temperature yesterday: 84 °F

Past Weeks' High & Low Weather Summary

 TemperatureHumidityPressure
High99 °F (Jul 29, 2:50 PM)83% (Jul 26, 4:50 AM)30.01 "Hg (Jul 26, 4:50 AM)
Low63 °F (Jul 25, 6:20 AM)12% (Jul 20, 4:20 PM)29.68 "Hg (Jul 28, 3:50 AM)
Average84 °F43%29.81 "Hg
* Reported Jul 19 10:20 AM — Aug 3 10:50 AM, Nea Smyrni, Weather by CustomWeather, © 2015

Note: Actual official high and low records may vary slightly from our data, if they occured in-between our weather recording intervals... More about our weather records

Advertising

Nea Smyrni weather history for previous 24 hours

 ConditionsComfort  
Time TempWeatherWind HumidityBarometerVisibility
10:50 AM
Mon, Aug 3
84 °FPassing clouds.20 mph51%29.95 "HgN/A
10:20 AM84 °FPassing clouds.23 mph51%29.95 "HgN/A
9:50 AM82 °FPassing clouds.18 mph58%29.95 "HgN/A
9:20 AM82 °FPassing clouds.20 mph55%29.95 "HgN/A
8:50 AM82 °FPassing clouds.13 mph55%29.95 "HgN/A
8:20 AM81 °FSunny.13 mph54%29.95 "Hg10 mi
7:50 AM81 °FPassing clouds.10 mph54%29.95 "HgN/A
7:20 AM79 °FClear.13 mph58%29.95 "Hg10 mi
6:50 AM79 °FClear.13 mph58%29.95 "Hg10 mi
6:20 AM79 °FClear.14 mph61%29.95 "Hg10 mi
5:50 AM79 °FPassing clouds.9 mph61%29.95 "HgN/A
5:20 AM79 °FClear.14 mph61%29.95 "Hg10 mi
4:50 AM79 °FClear.14 mph61%29.95 "Hg10 mi
4:20 AM79 °FClear.14 mph65%29.95 "Hg10 mi
3:50 AM79 °FClear.15 mph65%29.95 "Hg10 mi
3:20 AM79 °FClear.21 mph61%29.95 "Hg10 mi
2:50 AM79 °FClear.23 mph61%29.95 "Hg10 mi
2:20 AM81 °FClear.21 mph58%29.95 "Hg10 mi
1:50 AM81 °FClear.21 mph54%29.98 "Hg10 mi
1:20 AM81 °FClear.18 mph54%29.98 "Hg10 mi
12:50 AM82 °FClear.17 mph51%29.98 "Hg10 mi
12:20 AM82 °FClear.16 mph51%29.98 "Hg10 mi
11:50 PM
Sun, Aug 2
82 °FClear.15 mph51%29.98 "Hg10 mi
11:20 PM82 °FClear.12 mph51%29.98 "Hg10 mi
10:50 PM82 °FClear.13 mph51%29.98 "Hg10 mi
10:20 PM82 °FClear.10 mph48%29.98 "Hg10 mi
9:50 PM82 °FClear.13 mph48%29.98 "Hg10 mi
9:20 PM82 °FSunny.8 mph48%29.98 "Hg10 mi
8:50 PM84 °FSunny.9 mph45%29.98 "Hg10 mi
8:20 PM84 °FSunny.14 mph43%29.98 "Hg10 mi
7:50 PM84 °FSunny.15 mph40%29.98 "Hg10 mi
7:20 PM86 °FSunny.16 mph38%29.98 "Hg10 mi
6:50 PM86 °FSunny.20 mph35%29.98 "Hg10 mi
6:20 PM86 °FSunny.18 mph38%29.98 "Hg10 mi
5:50 PM88 °FSunny.22 mph35%29.98 "Hg10 mi
5:20 PM88 °FSunny.24 mph38%29.98 "Hg10 mi
4:50 PM90 °FPassing clouds.23 mph36%30.01 "HgN/A
4:20 PM90 °FPassing clouds.24 mph36%30.01 "HgN/A
3:50 PM90 °FPassing clouds.26 mph36%30.01 "HgN/A
3:20 PM90 °FPassing clouds.26 mph36%30.01 "HgN/A
2:50 PM90 °FPassing clouds.28 mph38%30.01 "HgN/A
2:20 PM88 °FPassing clouds.24 mph40%30.01 "HgN/A
1:50 PM88 °FPassing clouds.24 mph40%30.01 "HgN/A
1:20 PM88 °FPassing clouds.24 mph35%30.01 "HgN/A
12:20 PM88 °FPassing clouds.23 mph40%30.01 "HgN/A
Weather by CustomWeather, © 2015

See weather overviewHow to use our weather pages